GFSGBSN_prec_precacc24_057.txt.gz
Total_Precipitation_Accumulation
0.03 0.02 0.02 0.02 0.02 0.01 0.01 0.02 0.02 0.01 0.01 0.01 0.00 0.00 0.00 0.01 0.00 0.00 0.00 0.00 0.00 0.00 0.00 0.00 0.00 0.00 0.00 0.00 0.00 0.00 0.00 0.00 0.00 0.00 0.00 0.00 0.00 0.00 0.00 0.00 0.00 0.00 0.00 0.00 0.00 0.00 0.01
0.02 0.02 0.02 0.02 0.02 0.01 0.01 0.01 0.02 0.01 0.01 0.01 0.01 0.00 0.01 0.01 0.01 0.00 0.00 0.00 0.00 0.00 0.00 0.00 0.00 0.00 0.00 0.00 0.00 0.00 0.00 0.00 0.00 0.00 0.00 0.00 0.00 0.00 0.00 0.00 0.00 0.00 0.00 0.00 0.00 0.00 0.01
0.02 0.03 0.03 0.03 0.02 0.02 0.01 0.01 0.01 0.00 0.01 0.00 0.01 0.01 0.01 0.01 0.00 0.00 0.00 0.00 0.00 0.00 0.00 0.00 0.00 0.00 0.00 0.00 0.00 0.00 0.00 0.00 0.00 0.00 0.00 0.00 0.00 0.00 0.00 0.00 0.00 0.00 0.00 0.00 0.00 0.01 0.02
0.03 0.03 0.03 0.04 0.03 0.03 0.02 0.01 0.01 0.00 0.01 0.01 0.01 0.01 0.00 0.01 0.00 0.00 0.00 0.00 0.00 0.00 0.00 0.00 0.00 0.00 0.00 0.00 0.00 0.00 0.00 0.00 0.00 0.00 0.00 0.00 0.00 0.00 0.00 0.00 0.00 0.00 0.00 0.00 0.02 0.00 0.02
0.03 0.03 0.03 0.04 0.04 0.03 0.03 0.02 0.01 0.01 0.01 0.01 0.01 0.00 0.01 0.00 0.00 0.00 0.00 0.00 0.00 0.00 0.00 0.00 0.00 0.00 0.00 0.00 0.00 0.00 0.00 0.00 0.00 0.00 0.00 0.00 0.00 0.00 0.00 0.00 0.00 0.00 0.00 0.00 0.00 0.00 0.01
0.03 0.04 0.04 0.04 0.04 0.04 0.03 0.03 0.02 0.01 0.01 0.01 0.00 0.00 0.00 0.00 0.00 0.01 0.00 0.00 0.00 0.00 0.00 0.00 0.00 0.00 0.00 0.00 0.00 0.00 0.00 0.00 0.00 0.00 0.00 0.00 0.00 0.00 0.00 0.00 0.00 0.00 0.00 0.00 0.00 0.00 0.00
0.04 0.03 0.03 0.04 0.04 0.04 0.03 0.04 0.04 0.02 0.01 0.00 0.00 0.00 0.00 0.00 0.01 0.01 0.00 0.00 0.00 0.00 0.00 0.00 0.00 0.00 0.00 0.00 0.00 0.00 0.00 0.00 0.00 0.00 0.00 0.00 0.00 0.00 0.00 0.00 0.00 0.00 0.00 0.00 0.00 0.00 0.00
0.03 0.03 0.03 0.03 0.03 0.04 0.04 0.05 0.05 0.03 0.02 0.01 0.01 0.00 0.00 0.01 0.02 0.01 0.01 0.00 0.00 0.00 0.00 0.00 0.00 0.00 0.00 0.00 0.00 0.00 0.00 0.00 0.00 0.00 0.00 0.00 0.00 0.00 0.00 0.00 0.00 0.00 0.00 0.00 0.00 0.00 0.00
0.04 0.04 0.04 0.03 0.03 0.04 0.04 0.04 0.05 0.04 0.03 0.01 0.01 0.01 0.01 0.01 0.03 0.01 0.00 0.00 0.00 0.00 0.00 0.00 0.00 0.00 0.00 0.00 0.00 0.00 0.00 0.00 0.00 0.00 0.00 0.00 0.00 0.00 0.00 0.00 0.00 0.00 0.00 0.00 0.00 0.00 0.00
0.05 0.04 0.05 0.04 0.04 0.04 0.04 0.04 0.04 0.04 0.03 0.02 0.01 0.01 0.02 0.04 0.02 0.00 0.00 0.00 0.00 0.00 0.00 0.00 0.00 0.00 0.00 0.00 0.00 0.00 0.00 0.00 0.00 0.00 0.00 0.00 0.00 0.00 0.00 0.00 0.00 0.00 0.00 0.00 0.00 0.00 0.00
0.04 0.06 0.05 0.05 0.04 0.03 0.04 0.04 0.04 0.04 0.04 0.03 0.02 0.02 0.05 0.05 0.01 0.00 0.00 0.00 0.00 0.00 0.00 0.00 0.00 0.00 0.00 0.00 0.00 0.00 0.00 0.00 0.00 0.00 0.00 0.00 0.00 0.00 0.00 0.00 0.00 0.00 0.00 0.00 0.00 0.00 0.00
0.05 0.04 0.05 0.06 0.05 0.04 0.04 0.03 0.03 0.04 0.03 0.03 0.02 0.04 0.07 0.06 0.02 0.00 0.00 0.01 0.03 0.00 0.00 0.00 0.00 0.00 0.00 0.00 0.00 0.00 0.00 0.00 0.00 0.00 0.00 0.00 0.00 0.00 0.00 0.00 0.00 0.00 0.00 0.00 0.00 0.00 0.00
0.06 0.06 0.06 0.06 0.06 0.05 0.05 0.05 0.04 0.03 0.04 0.03 0.03 0.07 0.09 0.03 0.01 0.00 0.02 0.12 0.06 0.00 0.00 0.00 0.00 0.00 0.00 0.00 0.00 0.00 0.00 0.00 0.00 0.00 0.00 0.00 0.00 0.00 0.00 0.00 0.00 0.00 0.00 0.00 0.03 0.01 0.00
0.07 0.07 0.06 0.07 0.07 0.07 0.07 0.06 0.05 0.05 0.05 0.05 0.05 0.10 0.09 0.04 0.01 0.03 0.11 0.20 0.03 0.00 0.00 0.00 0.00 0.00 0.00 0.00 0.00 0.00 0.00 0.00 0.00 0.00 0.00 0.00 0.00 0.00 0.00 0.00 0.00 0.00 0.00 0.01 0.08 0.06 0.02
0.13 0.11 0.08 0.07 0.08 0.11 0.11 0.09 0.08 0.07 0.07 0.09 0.16 0.15 0.15 0.07 0.01 0.05 0.33 0.25 0.01 0.00 0.00 0.00 0.00 0.00 0.00 0.00 0.00 0.00 0.00 0.00 0.00 0.00 0.00 0.00 0.00 0.00 0.00 0.00 0.00 0.00 0.00 0.00 0.01 0.01 0.03
0.14 0.15 0.13 0.10 0.08 0.09 0.14 0.16 0.13 0.12 0.11 0.16 0.23 0.22 0.09 0.04 0.10 0.24 0.44 0.21 0.00 0.00 0.00 0.00 0.00 0.00 0.00 0.00 0.00 0.00 0.00 0.00 0.00 0.00 0.00 0.00 0.00 0.00 0.00 0.00 0.00 0.00 0.00 0.00 0.00 0.05 0.05
0.17 0.17 0.16 0.15 0.11 0.09 0.11 0.18 0.21 0.18 0.16 0.24 0.30 0.31 0.05 0.08 0.38 0.46 0.29 0.06 0.00 0.00 0.00 0.00 0.00 0.00 0.00 0.00 0.00 0.01 0.00 0.00 0.00 0.00 0.00 0.00 0.00 0.00 0.00 0.00 0.00 0.00 0.00 0.00 0.00 0.00 0.04
0.21 0.19 0.19 0.21 0.20 0.17 0.14 0.18 0.26 0.29 0.28 0.50 0.51 0.34 0.08 0.16 0.44 0.23 0.05 0.00 0.00 0.00 0.00 0.00 0.00 0.00 0.00 0.00 0.00 0.01 0.01 0.00 0.00 0.00 0.00 0.00 0.00 0.00 0.00 0.00 0.00 0.00 0.00 0.00 0.01 0.00 0.01
0.22 0.23 0.23 0.23 0.23 0.26 0.27 0.25 0.30 0.37 0.46 0.65 0.76 0.37 0.41 0.22 0.24 0.09 0.01 0.00 0.00 0.00 0.00 0.00 0.00 0.00 0.00 0.00 0.00 0.00 0.00 0.00 0.00 0.00 0.00 0.00 0.00 0.00 0.00 0.00 0.01 0.00 0.00 0.00 0.00 0.00 0.01
0.27 0.25 0.23 0.25 0.31 0.31 0.28 0.30 0.36 0.49 0.61 0.71 0.91 0.72 0.83 0.55 0.04 0.01 0.00 0.00 0.00 0.00 0.00 0.00 0.00 0.00 0.00 0.02 0.00 0.00 0.00 0.00 0.00 0.00 0.00 0.00 0.00 0.00 0.00 0.00 0.00 0.00 0.00 0.00 0.00 0.00 0.00
0.29 0.33 0.30 0.26 0.27 0.36 0.38 0.30 0.32 0.60 0.87 1.21 1.52 0.61 0.32 0.34 0.09 0.00 0.00 0.00 0.00 0.00 0.00 0.00 0.01 0.01 0.00 0.02 0.02 0.02 0.02 0.02 0.01 0.00 0.00 0.00 0.00 0.00 0.00 0.00 0.00 0.00 0.00 0.00 0.00 0.00 0.00
0.31 0.33 0.35 0.34 0.31 0.34 0.38 0.42 0.36 0.55 1.23 2.10 1.71 0.35 0.06 0.02 0.01 0.02 0.02 0.01 0.00 0.00 0.00 0.00 0.01 0.00 0.00 0.00 0.01 0.03 0.08 0.07 0.09 0.01 0.00 0.00 0.00 0.00 0.00 0.00 0.00 0.00 0.00 0.00 0.00 0.00 0.00
0.36 0.35 0.38 0.37 0.36 0.36 0.40 0.42 0.47 0.48 1.49 3.28 1.82 0.24 0.09 0.06 0.06 0.05 0.02 0.00 0.00 0.00 0.00 0.00 0.00 0.00 0.01 0.01 0.07 0.09 0.07 0.07 0.10 0.06 0.01 0.00 0.00 0.00 0.00 0.00 0.00 0.00 0.00 0.00 0.00 0.00 0.00
0.35 0.33 0.34 0.46 0.43 0.42 0.41 0.39 0.48 0.54 1.03 2.00 1.40 0.25 0.37 0.31 0.15 0.03 0.00 0.00 0.00 0.00 0.00 0.00 0.00 0.00 0.00 0.01 0.07 0.23 0.21 0.09 0.10 0.10 0.12 0.04 0.00 0.00 0.00 0.00 0.01 0.00 0.00 0.00 0.00 0.00 0.00
0.32 0.35 0.33 0.38 0.51 0.49 0.42 0.42 0.41 0.51 0.57 0.82 0.58 0.33 0.38 0.37 0.09 0.03 0.01 0.00 0.01 0.01 0.00 0.00 0.00 0.00 0.01 0.00 0.11 0.19 0.23 0.23 0.11 0.16 0.16 0.06 0.03 0.05 0.02 0.01 0.00 0.00 0.00 0.00 0.00 0.00 0.00
0.26 0.31 0.34 0.41 0.45 0.47 0.49 0.45 0.41 0.41 0.51 0.55 0.36 0.41 0.57 0.48 0.17 0.03 0.04 0.02 0.03 0.05 0.05 0.00 0.00 0.00 0.01 0.06 0.13 0.11 0.12 0.12 0.12 0.14 0.17 0.23 0.09 0.09 0.07 0.01 0.00 0.00 0.00 0.00 0.00 0.00 0.00
0.26 0.30 0.32 0.46 0.44 0.47 0.47 0.50 0.41 0.35 0.54 0.51 0.37 0.46 0.63 0.83 0.27 0.14 0.12 0.05 0.02 0.05 0.07 0.02 0.03 0.10 0.06 0.08 0.07 0.06 0.05 0.02 0.03 0.04 0.09 0.19 0.13 0.04 0.06 0.09 0.00 0.00 0.00 0.00 0.00 0.00 0.00
0.28 0.37 0.35 0.45 0.43 0.52 0.46 0.51 0.45 0.40 0.55 0.61 0.33 0.51 0.60 0.74 0.40 0.34 0.28 0.23 0.05 0.08 0.08 0.03 0.18 0.23 0.27 0.16 0.05 0.02 0.02 0.01 0.01 0.00 0.02 0.06 0.09 0.07 0.06 0.07 0.01 0.00 0.00 0.00 0.00 0.00 0.00
0.21 0.26 0.34 0.37 0.41 0.50 0.46 0.45 0.47 0.44 0.56 0.61 0.39 0.49 0.60 0.61 0.55 0.42 0.24 0.25 0.09 0.01 0.04 0.03 0.08 0.09 0.12 0.18 0.04 0.04 0.02 0.01 0.00 0.00 0.00 0.02 0.04 0.07 0.04 0.01 0.01 0.01 0.00 0.00 0.00 0.00 0.00

GFSGBSN_prec_precacc24_063.txt.gz
Total_Precipitation_Accumulation
0.03 0.03 0.03 0.02 0.02 0.01 0.01 0.01 0.02 0.01 0.01 0.01 0.00 0.00 0.00 0.01 0.00 0.00 0.00 0.00 0.00 0.00 0.00 0.00 0.00 0.00 0.00 0.00 0.00 0.00 0.00 0.00 0.00 0.00 0.00 0.00 0.00 0.00 0.00 0.00 0.00 0.00 0.00 0.00 0.00 0.00 0.00
0.03 0.03 0.03 0.03 0.02 0.02 0.01 0.01 0.02 0.01 0.01 0.01 0.01 0.00 0.01 0.01 0.01 0.00 0.00 0.00 0.00 0.00 0.00 0.00 0.00 0.00 0.00 0.00 0.00 0.00 0.00 0.00 0.00 0.00 0.00 0.00 0.00 0.00 0.00 0.00 0.00 0.00 0.00 0.00 0.00 0.00 0.00
0.02 0.03 0.03 0.03 0.03 0.02 0.01 0.01 0.01 0.01 0.01 0.00 0.01 0.01 0.01 0.01 0.00 0.00 0.00 0.00 0.00 0.00 0.00 0.00 0.00 0.01 0.00 0.00 0.00 0.00 0.00 0.00 0.00 0.00 0.00 0.00 0.00 0.00 0.00 0.00 0.00 0.00 0.00 0.00 0.00 0.00 0.01
0.03 0.03 0.03 0.04 0.04 0.03 0.02 0.02 0.01 0.00 0.00 0.01 0.01 0.01 0.01 0.01 0.00 0.00 0.00 0.00 0.00 0.00 0.00 0.00 0.00 0.01 0.00 0.00 0.00 0.00 0.00 0.00 0.00 0.00 0.00 0.00 0.00 0.00 0.00 0.00 0.00 0.00 0.00 0.00 0.02 0.00 0.02
0.03 0.03 0.04 0.05 0.04 0.03 0.03 0.02 0.02 0.01 0.00 0.00 0.01 0.00 0.01 0.00 0.00 0.00 0.00 0.00 0.00 0.00 0.00 0.00 0.00 0.00 0.00 0.00 0.00 0.00 0.00 0.00 0.00 0.00 0.00 0.00 0.00 0.00 0.00 0.00 0.00 0.00 0.00 0.00 0.00 0.00 0.01
0.03 0.04 0.04 0.04 0.04 0.04 0.03 0.03 0.02 0.01 0.01 0.01 0.00 0.00 0.00 0.00 0.00 0.01 0.00 0.00 0.00 0.00 0.00 0.00 0.00 0.00 0.00 0.00 0.00 0.00 0.00 0.00 0.00 0.00 0.00 0.00 0.00 0.00 0.00 0.00 0.00 0.00 0.00 0.00 0.00 0.00 0.00
0.04 0.04 0.04 0.04 0.04 0.04 0.04 0.04 0.04 0.02 0.01 0.01 0.00 0.00 0.00 0.00 0.01 0.01 0.00 0.00 0.00 0.00 0.00 0.00 0.00 0.00 0.00 0.00 0.00 0.00 0.00 0.00 0.00 0.00 0.00 0.00 0.00 0.00 0.00 0.00 0.00 0.00 0.00 0.00 0.00 0.00 0.00
0.03 0.03 0.03 0.03 0.04 0.03 0.05 0.07 0.06 0.04 0.02 0.01 0.01 0.00 0.00 0.01 0.02 0.01 0.01 0.00 0.00 0.00 0.00 0.00 0.00 0.00 0.00 0.00 0.00 0.00 0.00 0.00 0.00 0.00 0.00 0.00 0.00 0.00 0.00 0.00 0.00 0.00 0.00 0.00 0.00 0.00 0.00
0.03 0.03 0.03 0.03 0.04 0.04 0.04 0.05 0.05 0.05 0.03 0.02 0.01 0.01 0.00 0.01 0.03 0.01 0.00 0.00 0.00 0.00 0.00 0.00 0.00 0.00 0.00 0.00 0.00 0.00 0.00 0.00 0.00 0.00 0.00 0.00 0.00 0.00 0.00 0.00 0.00 0.00 0.00 0.00 0.00 0.00 0.00
0.03 0.03 0.04 0.04 0.04 0.04 0.04 0.05 0.05 0.05 0.03 0.02 0.01 0.01 0.01 0.04 0.02 0.00 0.00 0.00 0.00 0.00 0.00 0.00 0.00 0.00 0.00 0.00 0.00 0.00 0.00 0.00 0.00 0.00 0.00 0.00 0.00 0.00 0.00 0.00 0.00 0.00 0.00 0.00 0.00 0.00 0.00
0.03 0.04 0.04 0.04 0.03 0.02 0.03 0.05 0.05 0.05 0.05 0.04 0.02 0.02 0.03 0.05 0.01 0.00 0.00 0.00 0.00 0.00 0.00 0.00 0.00 0.00 0.00 0.00 0.00 0.00 0.00 0.00 0.00 0.00 0.00 0.00 0.00 0.00 0.00 0.00 0.00 0.00 0.00 0.00 0.00 0.00 0.00
0.04 0.02 0.03 0.03 0.04 0.04 0.03 0.04 0.04 0.05 0.04 0.04 0.03 0.03 0.05 0.06 0.02 0.00 0.00 0.01 0.04 0.00 0.00 0.00 0.00 0.00 0.00 0.00 0.00 0.00 0.00 0.00 0.00 0.00 0.00 0.00 0.00 0.00 0.00 0.00 0.00 0.00 0.00 0.00 0.00 0.00 0.00
0.04 0.03 0.03 0.03 0.03 0.05 0.05 0.05 0.05 0.05 0.06 0.05 0.04 0.05 0.07 0.03 0.01 0.00 0.02 0.11 0.08 0.01 0.00 0.00 0.00 0.00 0.00 0.00 0.00 0.00 0.00 0.00 0.00 0.00 0.00 0.00 0.00 0.00 0.00 0.00 0.00 0.00 0.00 0.00 0.03 0.01 0.00
0.05 0.04 0.03 0.04 0.03 0.05 0.06 0.07 0.07 0.08 0.09 0.10 0.09 0.11 0.08 0.04 0.01 0.03 0.11 0.21 0.05 0.00 0.00 0.00 0.00 0.00 0.00 0.00 0.00 0.00 0.00 0.00 0.00 0.00 0.00 0.00 0.00 0.00 0.00 0.00 0.00 0.00 0.00 0.01 0.08 0.06 0.02
0.09 0.08 0.06 0.05 0.06 0.07 0.10 0.09 0.10 0.10 0.11 0.14 0.22 0.18 0.15 0.06 0.01 0.05 0.34 0.30 0.02 0.00 0.00 0.00 0.00 0.00 0.00 0.00 0.00 0.00 0.00 0.00 0.00 0.00 0.00 0.00 0.00 0.00 0.00 0.00 0.00 0.00 0.00 0.00 0.01 0.01 0.03
0.12 0.11 0.09 0.08 0.07 0.08 0.12 0.15 0.14 0.16 0.15 0.21 0.28 0.23 0.08 0.04 0.10 0.25 0.48 0.23 0.00 0.00 0.00 0.00 0.00 0.00 0.00 0.00 0.00 0.00 0.00 0.00 0.00 0.00 0.00 0.00 0.00 0.00 0.00 0.00 0.00 0.00 0.00 0.00 0.00 0.05 0.05
0.15 0.14 0.12 0.10 0.09 0.08 0.10 0.17 0.20 0.20 0.20 0.30 0.53 0.46 0.07 0.08 0.39 0.47 0.32 0.06 0.00 0.00 0.00 0.00 0.00 0.00 0.00 0.00 0.00 0.02 0.00 0.00 0.00 0.00 0.00 0.00 0.00 0.00 0.00 0.00 0.00 0.00 0.00 0.00 0.00 0.00 0.04
0.18 0.17 0.16 0.17 0.16 0.13 0.12 0.17 0.24 0.28 0.33 0.78 1.10 0.66 0.10 0.16 0.49 0.24 0.05 0.00 0.00 0.00 0.00 0.00 0.00 0.00 0.00 0.00 0.00 0.01 0.01 0.00 0.00 0.00 0.00 0.00 0.00 0.00 0.00 0.00 0.00 0.00 0.00 0.00 0.01 0.00 0.01
0.16 0.21 0.21 0.19 0.18 0.20 0.22 0.25 0.31 0.37 0.59 1.12 1.47 0.67 0.48 0.21 0.26 0.10 0.01 0.00 0.00 0.00 0.00 0.00 0.00 0.00 0.00 0.00 0.00 0.00 0.00 0.00 0.00 0.00 0.00 0.00 0.00 0.00 0.00 0.00 0.00 0.00 0.00 0.00 0.00 0.00 0.01
0.18 0.21 0.23 0.24 0.28 0.26 0.23 0.29 0.39 0.50 0.72 1.28 1.74 1.06 1.09 0.62 0.04 0.01 0.00 0.00 0.00 0.00 0.00 0.00 0.00 0.00 0.00 0.02 0.00 0.00 0.00 0.00 0.00 0.00 0.00 0.00 0.00 0.00 0.00 0.00 0.00 0.00 0.00 0.00 0.00 0.00 0.00
0.20 0.29 0.29 0.26 0.25 0.31 0.35 0.30 0.36 0.63 0.93 1.91 2.60 0.92 0.40 0.48 0.13 0.00 0.00 0.00 0.00 0.00 0.00 0.00 0.01 0.01 0.00 0.02 0.02 0.02 0.02 0.02 0.02 0.01 0.00 0.04 0.02 0.00 0.00 0.00 0.00 0.00 0.00 0.00 0.00 0.00 0.00
0.23 0.31 0.35 0.35 0.32 0.35 0.39 0.44 0.40 0.56 1.24 2.84 2.71 0.51 0.07 0.02 0.02 0.03 0.03 0.01 0.00 0.00 0.00 0.00 0.01 0.00 0.00 0.00 0.01 0.03 0.08 0.07 0.10 0.05 0.02 0.05 0.05 0.01 0.00 0.00 0.00 0.00 0.00 0.00 0.00 0.00 0.00
0.29 0.35 0.40 0.41 0.39 0.40 0.45 0.45 0.52 0.50 1.46 3.82 2.54 0.35 0.08 0.07 0.06 0.09 0.03 0.00 0.00 0.00 0.00 0.00 0.00 0.00 0.01 0.01 0.07 0.10 0.07 0.07 0.10 0.11 0.12 0.10 0.12 0.05 0.02 0.00 0.00 0.01 0.00 0.00 0.00 0.00 0.00
0.30 0.35 0.39 0.52 0.48 0.47 0.47 0.45 0.56 0.60 1.04 2.15 1.77 0.38 0.40 0.41 0.15 0.03 0.00 0.00 0.00 0.00 0.00 0.00 0.00 0.00 0.00 0.00 0.07 0.25 0.21 0.09 0.10 0.10 0.17 0.19 0.13 0.17 0.09 0.02 0.08 0.03 0.00 0.00 0.00 0.00 0.00
0.28 0.34 0.35 0.42 0.55 0.54 0.47 0.48 0.51 0.63 0.66 0.86 0.88 0.51 0.44 0.41 0.10 0.02 0.01 0.00 0.01 0.01 0.00 0.00 0.00 0.00 0.00 0.00 0.09 0.17 0.22 0.21 0.11 0.16 0.17 0.16 0.23 0.28 0.13 0.07 0.05 0.00 0.00 0.00 0.00 0.00 0.00
0.23 0.31 0.35 0.41 0.46 0.48 0.51 0.44 0.44 0.54 0.66 0.77 0.67 0.49 0.76 0.63 0.25 0.03 0.03 0.02 0.03 0.04 0.04 0.00 0.00 0.00 0.00 0.01 0.10 0.10 0.12 0.13 0.12 0.14 0.17 0.31 0.30 0.30 0.23 0.11 0.04 0.00 0.00 0.00 0.00 0.00 0.00
0.24 0.28 0.29 0.41 0.43 0.42 0.47 0.47 0.41 0.38 0.66 0.71 0.67 0.38 0.69 1.17 0.31 0.11 0.12 0.05 0.02 0.04 0.06 0.01 0.02 0.06 0.03 0.03 0.05 0.06 0.06 0.03 0.03 0.04 0.09 0.22 0.37 0.32 0.26 0.22 0.04 0.00 0.00 0.00 0.02 0.01 0.00
0.27 0.32 0.29 0.36 0.36 0.38 0.43 0.47 0.45 0.42 0.56 0.69 0.48 0.40 0.47 0.87 0.48 0.29 0.27 0.23 0.05 0.07 0.08 0.02 0.14 0.17 0.18 0.08 0.03 0.02 0.02 0.01 0.01 0.00 0.02 0.06 0.15 0.20 0.27 0.28 0.12 0.04 0.07 0.06 0.02 0.00 0.00
0.20 0.22 0.28 0.31 0.34 0.38 0.39 0.39 0.46 0.46 0.61 0.68 0.50 0.43 0.53 0.66 0.63 0.44 0.26 0.28 0.13 0.03 0.03 0.03 0.07 0.08 0.10 0.15 0.03 0.03 0.02 0.01 0.00 0.00 0.00 0.03 0.04 0.07 0.07 0.06 0.04 0.04 0.09 0.09 0.04 0.02 0.00

GFSGBSN_prec_precacc24_066.txt.gz
Total_Precipitation_Accumulation
0.03 0.03 0.03 0.03 0.03 0.02 0.02 0.02 0.02 0.01 0.00 0.00 0.00 0.00 0.00 0.01 0.00 0.00 0.00 0.00 0.00 0.00 0.00 0.00 0.00 0.00 0.00 0.00 0.00 0.00 0.00 0.00 0.00 0.00 0.00 0.00 0.00 0.00 0.00 0.00 0.00 0.00 0.00 0.00 0.00 0.00 0.00
0.03 0.03 0.03 0.03 0.02 0.02 0.01 0.02 0.02 0.01 0.00 0.00 0.00 0.00 0.01 0.01 0.01 0.00 0.00 0.00 0.00 0.00 0.00 0.00 0.00 0.00 0.00 0.00 0.00 0.00 0.00 0.00 0.00 0.00 0.00 0.00 0.00 0.00 0.00 0.00 0.00 0.00 0.00 0.00 0.00 0.00 0.00
0.02 0.02 0.03 0.03 0.03 0.02 0.01 0.01 0.01 0.01 0.01 0.00 0.00 0.01 0.01 0.01 0.00 0.00 0.00 0.00 0.00 0.00 0.00 0.00 0.00 0.01 0.00 0.00 0.00 0.00 0.00 0.00 0.00 0.00 0.00 0.00 0.00 0.00 0.00 0.00 0.00 0.00 0.00 0.00 0.00 0.00 0.01
0.03 0.03 0.03 0.04 0.04 0.03 0.02 0.02 0.01 0.00 0.01 0.01 0.01 0.00 0.01 0.01 0.00 0.00 0.00 0.00 0.00 0.00 0.00 0.00 0.00 0.01 0.00 0.00 0.00 0.00 0.00 0.00 0.00 0.00 0.00 0.00 0.00 0.00 0.00 0.00 0.00 0.00 0.00 0.00 0.02 0.00 0.01
0.03 0.04 0.04 0.04 0.04 0.03 0.03 0.02 0.02 0.01 0.01 0.00 0.01 0.00 0.00 0.00 0.00 0.00 0.00 0.00 0.00 0.00 0.00 0.00 0.00 0.00 0.00 0.00 0.00 0.00 0.00 0.00 0.00 0.00 0.00 0.00 0.00 0.00 0.00 0.00 0.00 0.00 0.00 0.00 0.00 0.00 0.01
0.03 0.04 0.04 0.04 0.04 0.04 0.03 0.02 0.02 0.01 0.01 0.01 0.00 0.00 0.00 0.00 0.00 0.01 0.00 0.00 0.00 0.00 0.00 0.00 0.00 0.00 0.00 0.00 0.00 0.00 0.00 0.00 0.00 0.00 0.00 0.00 0.00 0.00 0.00 0.00 0.00 0.00 0.00 0.00 0.00 0.00 0.00
0.03 0.03 0.03 0.04 0.03 0.03 0.03 0.04 0.04 0.03 0.02 0.01 0.01 0.00 0.00 0.00 0.00 0.01 0.00 0.00 0.00 0.00 0.00 0.00 0.00 0.00 0.00 0.00 0.00 0.00 0.00 0.00 0.00 0.00 0.00 0.00 0.00 0.00 0.00 0.00 0.00 0.00 0.00 0.00 0.00 0.00 0.00
0.03 0.03 0.02 0.03 0.03 0.03 0.04 0.06 0.05 0.04 0.02 0.02 0.01 0.01 0.00 0.00 0.02 0.01 0.01 0.00 0.00 0.00 0.00 0.00 0.00 0.00 0.00 0.00 0.00 0.00 0.00 0.00 0.00 0.00 0.00 0.00 0.00 0.00 0.00 0.00 0.00 0.00 0.00 0.00 0.00 0.00 0.00
0.03 0.03 0.03 0.02 0.03 0.04 0.04 0.05 0.05 0.04 0.03 0.02 0.01 0.01 0.01 0.00 0.02 0.01 0.00 0.00 0.00 0.00 0.00 0.00 0.00 0.00 0.00 0.00 0.00 0.00 0.00 0.00 0.00 0.00 0.00 0.00 0.00 0.00 0.00 0.00 0.00 0.00 0.00 0.00 0.00 0.00 0.00
0.04 0.04 0.04 0.03 0.03 0.04 0.04 0.04 0.05 0.04 0.03 0.02 0.01 0.01 0.01 0.01 0.02 0.00 0.00 0.00 0.00 0.00 0.00 0.00 0.00 0.00 0.00 0.00 0.00 0.00 0.00 0.00 0.00 0.00 0.00 0.00 0.00 0.00 0.00 0.00 0.00 0.00 0.00 0.00 0.00 0.00 0.00
0.04 0.05 0.05 0.04 0.03 0.02 0.03 0.04 0.04 0.04 0.04 0.04 0.03 0.02 0.02 0.03 0.01 0.00 0.00 0.00 0.00 0.00 0.00 0.00 0.00 0.00 0.00 0.00 0.00 0.00 0.00 0.00 0.00 0.00 0.00 0.00 0.00 0.00 0.00 0.00 0.00 0.00 0.00 0.00 0.00 0.00 0.00
0.04 0.04 0.04 0.03 0.03 0.03 0.02 0.03 0.05 0.04 0.04 0.03 0.03 0.04 0.06 0.04 0.02 0.00 0.00 0.01 0.04 0.01 0.00 0.00 0.00 0.00 0.00 0.00 0.00 0.00 0.00 0.00 0.00 0.00 0.00 0.00 0.00 0.00 0.00 0.00 0.00 0.00 0.00 0.00 0.00 0.00 0.00
0.04 0.04 0.04 0.03 0.03 0.03 0.03 0.04 0.06 0.05 0.05 0.05 0.04 0.05 0.09 0.03 0.01 0.00 0.02 0.11 0.10 0.01 0.00 0.00 0.00 0.00 0.00 0.00 0.00 0.00 0.00 0.00 0.00 0.00 0.00 0.00 0.00 0.00 0.00 0.00 0.00 0.00 0.00 0.00 0.03 0.01 0.00
0.06 0.05 0.04 0.04 0.03 0.04 0.04 0.05 0.06 0.08 0.09 0.10 0.09 0.13 0.08 0.04 0.01 0.03 0.11 0.20 0.05 0.00 0.00 0.00 0.00 0.00 0.00 0.00 0.00 0.00 0.00 0.00 0.00 0.00 0.00 0.00 0.00 0.00 0.00 0.00 0.00 0.00 0.00 0.01 0.08 0.06 0.02
0.08 0.07 0.06 0.06 0.06 0.06 0.06 0.07 0.08 0.10 0.11 0.14 0.25 0.20 0.14 0.06 0.01 0.05 0.34 0.30 0.02 0.00 0.00 0.00 0.00 0.00 0.00 0.00 0.00 0.00 0.00 0.00 0.00 0.00 0.00 0.00 0.00 0.00 0.00 0.00 0.00 0.00 0.00 0.00 0.01 0.01 0.03
0.10 0.11 0.10 0.08 0.07 0.08 0.09 0.09 0.10 0.15 0.16 0.24 0.32 0.28 0.09 0.04 0.09 0.24 0.48 0.23 0.00 0.00 0.00 0.00 0.00 0.00 0.00 0.00 0.00 0.00 0.00 0.00 0.00 0.00 0.00 0.00 0.00 0.00 0.00 0.00 0.00 0.00 0.00 0.00 0.00 0.05 0.05
0.11 0.12 0.11 0.10 0.09 0.08 0.09 0.11 0.13 0.17 0.21 0.34 0.61 0.59 0.12 0.07 0.36 0.44 0.32 0.06 0.00 0.00 0.00 0.00 0.00 0.00 0.00 0.00 0.00 0.02 0.00 0.00 0.00 0.00 0.00 0.00 0.00 0.00 0.00 0.00 0.00 0.00 0.00 0.00 0.00 0.00 0.04
0.12 0.11 0.13 0.15 0.16 0.13 0.12 0.13 0.15 0.23 0.34 0.82 1.26 0.85 0.16 0.16 0.53 0.27 0.06 0.00 0.00 0.00 0.00 0.00 0.00 0.00 0.00 0.00 0.00 0.01 0.01 0.00 0.00 0.00 0.00 0.00 0.00 0.00 0.00 0.00 0.00 0.00 0.00 0.00 0.01 0.00 0.01
0.07 0.10 0.13 0.14 0.17 0.21 0.21 0.22 0.23 0.31 0.62 1.22 1.67 0.84 0.59 0.21 0.29 0.12 0.01 0.00 0.00 0.00 0.00 0.00 0.00 0.00 0.00 0.00 0.00 0.00 0.00 0.00 0.00 0.00 0.00 0.00 0.00 0.00 0.00 0.00 0.00 0.00 0.00 0.00 0.00 0.00 0.01
0.07 0.07 0.08 0.15 0.25 0.26 0.22 0.27 0.34 0.42 0.73 1.41 2.08 1.22 1.29 0.78 0.05 0.01 0.01 0.01 0.00 0.00 0.00 0.00 0.00 0.00 0.00 0.02 0.00 0.00 0.00 0.00 0.00 0.00 0.00 0.01 0.01 0.01 0.02 0.00 0.00 0.00 0.00 0.00 0.00 0.00 0.00
0.13 0.11 0.09 0.12 0.20 0.30 0.33 0.26 0.34 0.58 0.92 2.04 3.00 1.14 0.47 0.59 0.17 0.00 0.00 0.00 0.00 0.00 0.00 0.00 0.01 0.01 0.00 0.02 0.02 0.02 0.02 0.02 0.02 0.01 0.01 0.04 0.02 0.00 0.00 0.00 0.00 0.00 0.00 0.00 0.00 0.00 0.00
0.18 0.18 0.16 0.19 0.25 0.31 0.36 0.41 0.37 0.56 1.25 3.00 3.08 0.62 0.12 0.03 0.02 0.03 0.03 0.01 0.00 0.00 0.00 0.00 0.01 0.00 0.00 0.00 0.01 0.03 0.08 0.07 0.10 0.05 0.03 0.05 0.05 0.01 0.00 0.00 0.00 0.00 0.00 0.00 0.00 0.00 0.00
0.24 0.25 0.25 0.26 0.33 0.36 0.41 0.43 0.49 0.50 1.49 3.97 2.72 0.41 0.11 0.09 0.06 0.11 0.04 0.00 0.01 0.00 0.00 0.00 0.00 0.00 0.01 0.01 0.07 0.10 0.07 0.07 0.10 0.11 0.12 0.10 0.12 0.05 0.02 0.00 0.01 0.01 0.00 0.00 0.00 0.00 0.00
0.25 0.27 0.28 0.40 0.44 0.44 0.45 0.44 0.54 0.61 1.10 2.29 1.80 0.41 0.43 0.47 0.15 0.04 0.00 0.00 0.00 0.00 0.00 0.00 0.00 0.00 0.00 0.00 0.07 0.24 0.21 0.09 0.10 0.10 0.17 0.20 0.13 0.17 0.09 0.02 0.09 0.03 0.00 0.00 0.00 0.00 0.00
0.21 0.27 0.26 0.31 0.51 0.54 0.47 0.48 0.52 0.66 0.73 0.98 0.95 0.53 0.40 0.40 0.12 0.03 0.01 0.00 0.01 0.01 0.00 0.00 0.00 0.00 0.00 0.00 0.09 0.17 0.22 0.21 0.11 0.16 0.17 0.17 0.23 0.28 0.13 0.07 0.05 0.00 0.00 0.00 0.00 0.00 0.00
0.15 0.21 0.25 0.34 0.43 0.50 0.52 0.47 0.49 0.59 0.75 0.91 0.75 0.54 0.79 0.59 0.27 0.04 0.04 0.02 0.03 0.05 0.04 0.00 0.00 0.00 0.00 0.01 0.11 0.12 0.11 0.12 0.12 0.14 0.18 0.33 0.32 0.32 0.23 0.12 0.04 0.00 0.00 0.00 0.00 0.00 0.00
0.14 0.16 0.18 0.33 0.40 0.43 0.47 0.50 0.48 0.49 0.80 0.92 0.83 0.43 0.79 1.19 0.33 0.12 0.14 0.07 0.03 0.05 0.07 0.01 0.02 0.06 0.03 0.03 0.05 0.06 0.05 0.02 0.03 0.05 0.10 0.23 0.39 0.35 0.30 0.25 0.04 0.00 0.00 0.00 0.02 0.02 0.00
0.16 0.21 0.21 0.31 0.33 0.37 0.42 0.50 0.49 0.51 0.73 0.99 0.76 0.40 0.49 0.94 0.56 0.30 0.25 0.23 0.06 0.08 0.08 0.02 0.17 0.20 0.19 0.10 0.03 0.01 0.01 0.01 0.01 0.00 0.03 0.07 0.16 0.20 0.29 0.30 0.12 0.04 0.08 0.07 0.02 0.01 0.00
0.14 0.16 0.25 0.30 0.33 0.38 0.40 0.41 0.48 0.50 0.69 0.90 0.85 0.43 0.46 0.71 0.71 0.45 0.26 0.27 0.13 0.03 0.03 0.03 0.07 0.08 0.10 0.15 0.03 0.01 0.02 0.01 0.00 0.00 0.00 0.03 0.04 0.07 0.07 0.06 0.04 0.04 0.09 0.09 0.04 0.03 0.01

GFSGBSN_prec_precacc24_069.txt.gz
Total_Precipitation_Accumulation
0.03 0.03 0.03 0.03 0.03 0.02 0.02 0.02 0.02 0.01 0.00 0.00 0.00 0.00 0.00 0.01 0.00 0.00 0.00 0.00 0.00 0.00 0.00 0.00 0.00 0.00 0.00 0.00 0.00 0.00 0.00 0.00 0.00 0.00 0.00 0.00 0.00 0.00 0.00 0.00 0.00 0.00 0.00 0.00 0.00 0.00 0.00
0.03 0.03 0.03 0.03 0.02 0.02 0.02 0.02 0.02 0.01 0.00 0.00 0.00 0.00 0.00 0.01 0.01 0.00 0.00 0.00 0.00 0.00 0.00 0.00 0.00 0.00 0.00 0.00 0.00 0.00 0.00 0.00 0.00 0.00 0.00 0.00 0.00 0.00 0.00 0.00 0.00 0.00 0.00 0.00 0.00 0.00 0.00
0.02 0.02 0.03 0.03 0.03 0.02 0.01 0.01 0.01 0.01 0.01 0.00 0.00 0.00 0.00 0.00 0.00 0.00 0.00 0.00 0.00 0.00 0.00 0.00 0.00 0.01 0.00 0.00 0.00 0.00 0.00 0.00 0.00 0.00 0.00 0.00 0.00 0.00 0.00 0.00 0.00 0.00 0.00 0.00 0.00 0.00 0.00
0.03 0.03 0.03 0.04 0.04 0.03 0.02 0.02 0.01 0.00 0.01 0.01 0.01 0.00 0.00 0.00 0.00 0.00 0.00 0.00 0.00 0.00 0.00 0.00 0.00 0.01 0.00 0.00 0.00 0.00 0.00 0.00 0.00 0.00 0.00 0.00 0.00 0.00 0.00 0.00 0.00 0.00 0.00 0.00 0.02 0.00 0.00
0.03 0.03 0.03 0.04 0.04 0.03 0.03 0.02 0.02 0.01 0.01 0.01 0.01 0.00 0.00 0.00 0.00 0.00 0.00 0.00 0.00 0.00 0.00 0.00 0.00 0.00 0.00 0.00 0.00 0.00 0.00 0.00 0.00 0.00 0.00 0.00 0.00 0.00 0.00 0.00 0.00 0.00 0.00 0.00 0.00 0.00 0.00
0.03 0.04 0.04 0.04 0.03 0.03 0.03 0.02 0.02 0.01 0.02 0.02 0.01 0.01 0.00 0.00 0.00 0.00 0.00 0.00 0.00 0.00 0.00 0.00 0.00 0.00 0.00 0.00 0.00 0.00 0.00 0.00 0.00 0.00 0.00 0.00 0.00 0.00 0.00 0.00 0.00 0.00 0.00 0.00 0.00 0.00 0.00
0.04 0.03 0.03 0.03 0.03 0.02 0.02 0.03 0.03 0.03 0.02 0.02 0.01 0.00 0.00 0.00 0.00 0.00 0.00 0.00 0.00 0.00 0.00 0.00 0.00 0.00 0.00 0.00 0.00 0.00 0.00 0.00 0.00 0.00 0.00 0.00 0.00 0.00 0.00 0.00 0.00 0.00 0.00 0.00 0.00 0.00 0.00
0.04 0.03 0.03 0.03 0.03 0.02 0.03 0.05 0.05 0.04 0.02 0.02 0.01 0.01 0.00 0.00 0.01 0.00 0.01 0.00 0.00 0.00 0.00 0.00 0.00 0.00 0.00 0.00 0.00 0.00 0.00 0.00 0.00 0.00 0.00 0.00 0.00 0.00 0.00 0.00 0.00 0.00 0.00 0.00 0.00 0.00 0.00
0.04 0.04 0.04 0.03 0.04 0.04 0.03 0.04 0.04 0.04 0.03 0.02 0.01 0.01 0.01 0.00 0.00 0.01 0.00 0.00 0.00 0.00 0.00 0.00 0.00 0.00 0.00 0.00 0.00 0.00 0.00 0.00 0.00 0.00 0.00 0.00 0.00 0.00 0.00 0.00 0.00 0.00 0.00 0.00 0.00 0.00 0.00
0.05 0.05 0.05 0.04 0.04 0.04 0.03 0.03 0.04 0.04 0.03 0.02 0.02 0.01 0.01 0.01 0.01 0.00 0.00 0.00 0.00 0.00 0.00 0.00 0.00 0.00 0.00 0.00 0.00 0.00 0.00 0.00 0.00 0.00 0.00 0.00 0.00 0.00 0.00 0.00 0.00 0.00 0.00 0.00 0.00 0.00 0.00
0.05 0.06 0.06 0.04 0.04 0.03 0.02 0.04 0.03 0.04 0.04 0.04 0.03 0.02 0.03 0.04 0.00 0.00 0.00 0.00 0.00 0.00 0.00 0.00 0.00 0.00 0.00 0.00 0.00 0.00 0.00 0.00 0.00 0.00 0.00 0.00 0.00 0.00 0.00 0.00 0.00 0.00 0.00 0.00 0.00 0.00 0.00
0.04 0.04 0.04 0.03 0.04 0.04 0.03 0.04 0.04 0.03 0.03 0.03 0.02 0.04 0.08 0.04 0.01 0.00 0.00 0.01 0.04 0.01 0.00 0.00 0.00 0.00 0.00 0.00 0.00 0.00 0.00 0.00 0.00 0.00 0.00 0.00 0.00 0.00 0.00 0.00 0.00 0.00 0.00 0.00 0.00 0.00 0.00
0.04 0.04 0.04 0.04 0.04 0.04 0.04 0.04 0.05 0.04 0.04 0.05 0.04 0.04 0.11 0.03 0.01 0.00 0.02 0.10 0.10 0.01 0.00 0.00 0.00 0.00 0.00 0.00 0.00 0.00 0.00 0.00 0.00 0.00 0.00 0.00 0.00 0.00 0.00 0.00 0.00 0.00 0.00 0.00 0.03 0.01 0.00
0.06 0.06 0.06 0.06 0.03 0.04 0.04 0.05 0.05 0.06 0.07 0.10 0.10 0.13 0.09 0.04 0.01 0.03 0.10 0.19 0.05 0.00 0.00 0.00 0.00 0.00 0.00 0.00 0.00 0.00 0.00 0.00 0.00 0.00 0.00 0.00 0.00 0.00 0.00 0.00 0.00 0.00 0.00 0.01 0.08 0.06 0.02
0.07 0.06 0.05 0.05 0.06 0.07 0.07 0.08 0.08 0.07 0.08 0.13 0.25 0.19 0.15 0.06 0.02 0.06 0.33 0.29 0.02 0.00 0.00 0.00 0.00 0.00 0.00 0.00 0.00 0.00 0.00 0.00 0.00 0.00 0.00 0.00 0.00 0.00 0.00 0.00 0.00 0.00 0.00 0.00 0.01 0.01 0.03
0.10 0.10 0.09 0.08 0.08 0.08 0.09 0.10 0.10 0.11 0.12 0.24 0.32 0.28 0.09 0.03 0.09 0.25 0.50 0.23 0.00 0.00 0.00 0.00 0.00 0.00 0.00 0.00 0.00 0.00 0.00 0.00 0.00 0.00 0.00 0.00 0.00 0.00 0.00 0.00 0.00 0.00 0.00 0.00 0.00 0.05 0.05
0.12 0.11 0.09 0.08 0.07 0.07 0.08 0.10 0.13 0.15 0.16 0.35 0.63 0.62 0.13 0.06 0.37 0.51 0.37 0.07 0.00 0.00 0.00 0.00 0.00 0.00 0.00 0.00 0.00 0.02 0.00 0.00 0.00 0.00 0.00 0.00 0.00 0.00 0.00 0.00 0.00 0.00 0.00 0.00 0.00 0.00 0.04
0.12 0.11 0.12 0.13 0.12 0.09 0.09 0.11 0.15 0.20 0.29 0.77 1.31 0.94 0.20 0.15 0.57 0.40 0.09 0.00 0.00 0.00 0.00 0.00 0.00 0.00 0.00 0.00 0.00 0.01 0.01 0.00 0.00 0.00 0.00 0.00 0.00 0.00 0.00 0.00 0.00 0.00 0.00 0.00 0.01 0.00 0.01
0.07 0.09 0.12 0.11 0.09 0.13 0.16 0.20 0.22 0.26 0.54 1.14 1.70 0.92 0.63 0.21 0.34 0.17 0.05 0.01 0.00 0.00 0.00 0.00 0.00 0.00 0.00 0.00 0.00 0.00 0.00 0.00 0.00 0.00 0.00 0.00 0.00 0.00 0.00 0.00 0.00 0.00 0.00 0.00 0.00 0.00 0.01
0.07 0.06 0.07 0.10 0.15 0.13 0.13 0.23 0.35 0.41 0.63 1.40 2.17 1.32 1.31 1.01 0.14 0.02 0.03 0.02 0.00 0.00 0.00 0.00 0.00 0.00 0.00 0.02 0.00 0.00 0.00 0.00 0.00 0.00 0.00 0.01 0.01 0.02 0.04 0.00 0.00 0.00 0.00 0.00 0.00 0.00 0.00
0.09 0.10 0.08 0.07 0.07 0.13 0.20 0.21 0.34 0.58 0.81 2.04 3.07 1.27 0.55 0.71 0.29 0.02 0.01 0.01 0.00 0.00 0.00 0.00 0.01 0.01 0.00 0.02 0.02 0.02 0.02 0.02 0.02 0.01 0.01 0.04 0.02 0.00 0.00 0.00 0.00 0.00 0.00 0.00 0.00 0.00 0.00
0.13 0.14 0.14 0.13 0.13 0.12 0.17 0.33 0.35 0.56 1.19 2.97 3.19 0.66 0.17 0.12 0.04 0.07 0.06 0.04 0.00 0.00 0.00 0.00 0.01 0.00 0.00 0.00 0.01 0.03 0.08 0.07 0.10 0.05 0.03 0.05 0.05 0.01 0.00 0.00 0.00 0.00 0.00 0.00 0.00 0.00 0.00
0.16 0.19 0.22 0.20 0.18 0.18 0.19 0.32 0.45 0.51 1.43 3.88 2.77 0.44 0.19 0.15 0.08 0.20 0.12 0.02 0.01 0.00 0.00 0.00 0.00 0.00 0.01 0.01 0.06 0.10 0.07 0.07 0.10 0.11 0.12 0.10 0.12 0.05 0.02 0.00 0.01 0.01 0.00 0.00 0.00 0.00 0.00
0.17 0.20 0.26 0.35 0.31 0.25 0.26 0.35 0.50 0.62 1.09 2.30 1.88 0.45 0.47 0.56 0.21 0.08 0.03 0.01 0.00 0.00 0.00 0.00 0.00 0.00 0.00 0.00 0.07 0.24 0.21 0.09 0.10 0.10 0.17 0.20 0.13 0.17 0.09 0.02 0.09 0.03 0.00 0.00 0.00 0.00 0.00
0.17 0.23 0.25 0.27 0.38 0.37 0.32 0.42 0.50 0.67 0.74 1.01 1.01 0.63 0.43 0.42 0.15 0.09 0.03 0.01 0.01 0.01 0.00 0.00 0.00 0.00 0.00 0.00 0.12 0.17 0.22 0.21 0.11 0.16 0.17 0.17 0.23 0.30 0.14 0.07 0.05 0.00 0.00 0.00 0.00 0.00 0.00
0.12 0.20 0.25 0.27 0.26 0.35 0.44 0.46 0.49 0.60 0.78 0.96 0.80 0.62 0.86 0.63 0.29 0.05 0.06 0.04 0.04 0.06 0.06 0.01 0.00 0.02 0.00 0.02 0.14 0.14 0.11 0.12 0.12 0.14 0.18 0.34 0.33 0.34 0.25 0.13 0.04 0.00 0.00 0.00 0.00 0.00 0.00
0.13 0.16 0.16 0.23 0.20 0.28 0.45 0.52 0.50 0.52 0.82 0.98 0.94 0.45 0.86 1.26 0.31 0.11 0.14 0.09 0.03 0.06 0.11 0.02 0.05 0.10 0.04 0.08 0.08 0.07 0.05 0.02 0.02 0.05 0.10 0.24 0.40 0.37 0.33 0.26 0.04 0.00 0.00 0.01 0.03 0.02 0.00
0.14 0.19 0.15 0.17 0.15 0.23 0.36 0.51 0.55 0.58 0.78 1.07 0.90 0.38 0.50 1.03 0.52 0.24 0.23 0.23 0.07 0.09 0.11 0.04 0.26 0.26 0.23 0.14 0.04 0.01 0.01 0.01 0.00 0.00 0.02 0.07 0.16 0.21 0.30 0.31 0.12 0.04 0.08 0.07 0.02 0.01 0.00
0.11 0.12 0.14 0.15 0.19 0.27 0.31 0.38 0.51 0.56 0.79 1.06 1.05 0.50 0.38 0.79 0.69 0.35 0.22 0.26 0.13 0.03 0.04 0.06 0.09 0.08 0.10 0.15 0.03 0.01 0.02 0.01 0.00 0.00 0.00 0.03 0.04 0.07 0.07 0.06 0.04 0.04 0.09 0.09 0.04 0.03 0.01

GFSGBSN_prec_precacc24_072.txt.gz
Total_Precipitation_Accumulation
0.02 0.03 0.02 0.03 0.03 0.02 0.02 0.02 0.02 0.01 0.00 0.00 0.00 0.00 0.00 0.00 0.00 0.00 0.00 0.00 0.00 0.00 0.00 0.00 0.00 0.00 0.00 0.00 0.00 0.00 0.00 0.00 0.00 0.00 0.00 0.00 0.00 0.00 0.00 0.00 0.00 0.00 0.00 0.00 0.00 0.00 0.00
0.02 0.02 0.03 0.03 0.02 0.02 0.02 0.02 0.02 0.01 0.01 0.00 0.00 0.00 0.00 0.00 0.00 0.00 0.00 0.00 0.00 0.00 0.00 0.00 0.00 0.00 0.00 0.00 0.00 0.00 0.00 0.00 0.00 0.00 0.00 0.00 0.00 0.00 0.00 0.00 0.00 0.00 0.00 0.00 0.00 0.00 0.00
0.02 0.02 0.02 0.03 0.03 0.02 0.02 0.01 0.02 0.01 0.01 0.00 0.00 0.00 0.00 0.00 0.00 0.00 0.00 0.00 0.00 0.00 0.00 0.00 0.00 0.01 0.00 0.00 0.00 0.00 0.00 0.00 0.00 0.00 0.00 0.00 0.00 0.00 0.00 0.00 0.00 0.00 0.00 0.00 0.00 0.00 0.00
0.03 0.03 0.03 0.03 0.04 0.03 0.03 0.02 0.02 0.01 0.01 0.01 0.01 0.00 0.00 0.00 0.00 0.00 0.00 0.00 0.00 0.00 0.00 0.00 0.00 0.01 0.00 0.00 0.00 0.00 0.00 0.00 0.00 0.00 0.00 0.00 0.00 0.00 0.00 0.00 0.00 0.00 0.00 0.00 0.02 0.00 0.00
0.03 0.04 0.04 0.04 0.04 0.03 0.03 0.02 0.02 0.01 0.01 0.01 0.01 0.00 0.00 0.00 0.00 0.00 0.00 0.00 0.00 0.00 0.00 0.00 0.00 0.00 0.00 0.00 0.00 0.00 0.00 0.00 0.00 0.00 0.00 0.00 0.00 0.00 0.00 0.00 0.00 0.00 0.00 0.00 0.00 0.00 0.00
0.03 0.04 0.04 0.04 0.03 0.02 0.02 0.02 0.02 0.02 0.02 0.02 0.01 0.01 0.00 0.00 0.00 0.00 0.00 0.00 0.00 0.00 0.00 0.00 0.00 0.00 0.00 0.00 0.00 0.00 0.00 0.00 0.00 0.00 0.00 0.00 0.00 0.00 0.00 0.00 0.00 0.00 0.00 0.00 0.00 0.00 0.00
0.04 0.04 0.04 0.03 0.03 0.02 0.02 0.02 0.02 0.03 0.03 0.02 0.02 0.01 0.00 0.00 0.00 0.00 0.00 0.00 0.00 0.00 0.00 0.00 0.00 0.00 0.00 0.00 0.00 0.00 0.00 0.00 0.00 0.00 0.00 0.00 0.00 0.00 0.00 0.00 0.00 0.00 0.00 0.00 0.00 0.00 0.00
0.04 0.03 0.03 0.03 0.03 0.03 0.03 0.04 0.03 0.03 0.03 0.03 0.01 0.01 0.00 0.00 0.01 0.00 0.00 0.00 0.00 0.00 0.00 0.00 0.00 0.00 0.00 0.00 0.00 0.00 0.00 0.00 0.00 0.00 0.00 0.00 0.00 0.00 0.00 0.00 0.00 0.00 0.00 0.00 0.00 0.00 0.00
0.05 0.05 0.04 0.03 0.04 0.04 0.04 0.05 0.03 0.03 0.03 0.02 0.02 0.01 0.00 0.00 0.00 0.00 0.00 0.00 0.00 0.00 0.00 0.00 0.00 0.00 0.00 0.00 0.00 0.00 0.00 0.00 0.00 0.00 0.00 0.00 0.00 0.00 0.00 0.00 0.00 0.00 0.00 0.00 0.00 0.00 0.00
0.05 0.06 0.06 0.04 0.05 0.04 0.04 0.04 0.03 0.02 0.01 0.02 0.01 0.01 0.01 0.01 0.01 0.00 0.00 0.00 0.00 0.00 0.00 0.00 0.00 0.00 0.00 0.00 0.00 0.00 0.00 0.00 0.00 0.00 0.00 0.00 0.00 0.00 0.00 0.00 0.00 0.00 0.00 0.00 0.00 0.00 0.00
0.06 0.07 0.07 0.05 0.05 0.04 0.04 0.04 0.03 0.03 0.02 0.02 0.03 0.02 0.02 0.04 0.01 0.00 0.00 0.00 0.00 0.00 0.00 0.00 0.00 0.00 0.00 0.00 0.00 0.00 0.00 0.00 0.00 0.00 0.00 0.00 0.00 0.00 0.00 0.00 0.00 0.00 0.00 0.00 0.00 0.00 0.00
0.05 0.05 0.05 0.04 0.05 0.05 0.04 0.04 0.05 0.03 0.02 0.01 0.02 0.04 0.08 0.05 0.02 0.00 0.00 0.01 0.04 0.02 0.00 0.00 0.00 0.00 0.00 0.00 0.00 0.00 0.00 0.00 0.00 0.00 0.00 0.00 0.00 0.00 0.00 0.00 0.00 0.00 0.00 0.00 0.00 0.00 0.00
0.05 0.05 0.05 0.04 0.05 0.05 0.05 0.05 0.06 0.04 0.03 0.03 0.03 0.04 0.10 0.04 0.02 0.00 0.02 0.10 0.10 0.01 0.00 0.00 0.00 0.00 0.00 0.00 0.00 0.00 0.00 0.00 0.00 0.01 0.02 0.00 0.00 0.00 0.00 0.00 0.00 0.00 0.00 0.00 0.02 0.01 0.00
0.08 0.07 0.06 0.06 0.05 0.06 0.05 0.06 0.06 0.07 0.07 0.09 0.08 0.12 0.06 0.03 0.01 0.02 0.09 0.18 0.05 0.00 0.00 0.00 0.00 0.00 0.00 0.00 0.00 0.00 0.00 0.00 0.00 0.00 0.00 0.02 0.01 0.00 0.00 0.00 0.00 0.00 0.00 0.01 0.08 0.06 0.02
0.05 0.05 0.04 0.04 0.05 0.06 0.07 0.08 0.09 0.08 0.08 0.11 0.24 0.18 0.13 0.04 0.02 0.06 0.31 0.29 0.02 0.00 0.00 0.00 0.00 0.00 0.00 0.00 0.00 0.00 0.00 0.00 0.00 0.00 0.00 0.00 0.00 0.00 0.00 0.00 0.00 0.00 0.00 0.00 0.01 0.01 0.03
0.10 0.10 0.09 0.09 0.08 0.08 0.09 0.10 0.11 0.11 0.12 0.24 0.31 0.27 0.08 0.03 0.11 0.22 0.49 0.24 0.00 0.00 0.00 0.00 0.00 0.00 0.00 0.00 0.00 0.00 0.00 0.00 0.00 0.00 0.00 0.00 0.00 0.00 0.00 0.00 0.00 0.00 0.00 0.00 0.00 0.05 0.05
0.09 0.10 0.09 0.08 0.07 0.08 0.09 0.09 0.12 0.14 0.16 0.34 0.58 0.56 0.13 0.06 0.37 0.45 0.39 0.07 0.00 0.00 0.00 0.00 0.00 0.00 0.00 0.00 0.00 0.02 0.00 0.00 0.00 0.00 0.00 0.00 0.00 0.00 0.00 0.00 0.00 0.00 0.00 0.00 0.00 0.00 0.04
0.09 0.10 0.11 0.13 0.13 0.10 0.09 0.09 0.12 0.17 0.28 0.73 1.23 0.88 0.20 0.18 0.52 0.39 0.14 0.01 0.00 0.00 0.00 0.00 0.00 0.00 0.00 0.00 0.00 0.01 0.01 0.00 0.00 0.00 0.00 0.00 0.00 0.00 0.00 0.00 0.00 0.00 0.00 0.00 0.01 0.00 0.01
0.07 0.06 0.05 0.05 0.08 0.14 0.16 0.16 0.18 0.21 0.52 1.12 1.59 0.87 0.58 0.28 0.36 0.19 0.10 0.03 0.00 0.00 0.00 0.00 0.00 0.00 0.00 0.00 0.00 0.00 0.00 0.00 0.00 0.00 0.00 0.00 0.00 0.00 0.00 0.00 0.00 0.00 0.00 0.00 0.00 0.00 0.01
0.08 0.07 0.07 0.07 0.08 0.10 0.12 0.19 0.27 0.36 0.61 1.42 2.10 1.24 1.23 1.05 0.27 0.04 0.04 0.05 0.01 0.00 0.00 0.00 0.00 0.00 0.00 0.02 0.00 0.00 0.00 0.00 0.00 0.00 0.00 0.01 0.01 0.02 0.04 0.00 0.00 0.00 0.00 0.00 0.00 0.00 0.00
0.07 0.07 0.06 0.06 0.07 0.11 0.17 0.14 0.22 0.48 0.78 2.02 2.95 1.23 0.52 0.76 0.36 0.11 0.03 0.03 0.00 0.00 0.00 0.00 0.01 0.01 0.00 0.02 0.02 0.02 0.02 0.02 0.02 0.01 0.01 0.04 0.02 0.00 0.00 0.00 0.00 0.00 0.00 0.00 0.00 0.00 0.00
0.09 0.09 0.09 0.10 0.12 0.11 0.13 0.22 0.19 0.40 1.09 2.92 3.08 0.66 0.19 0.14 0.08 0.14 0.17 0.17 0.01 0.00 0.00 0.00 0.01 0.00 0.00 0.00 0.01 0.03 0.08 0.07 0.10 0.05 0.03 0.05 0.05 0.01 0.00 0.00 0.00 0.00 0.00 0.00 0.00 0.00 0.00
0.16 0.15 0.14 0.15 0.16 0.16 0.15 0.17 0.25 0.30 1.24 3.73 2.76 0.46 0.24 0.18 0.09 0.28 0.22 0.09 0.05 0.01 0.00 0.00 0.00 0.00 0.01 0.01 0.06 0.10 0.07 0.07 0.10 0.11 0.12 0.10 0.13 0.06 0.02 0.00 0.01 0.01 0.00 0.00 0.00 0.00 0.00
0.19 0.20 0.23 0.28 0.28 0.23 0.21 0.20 0.28 0.38 0.88 2.20 1.89 0.48 0.50 0.58 0.23 0.10 0.07 0.08 0.03 0.01 0.01 0.00 0.00 0.00 0.00 0.00 0.07 0.24 0.21 0.09 0.10 0.10 0.17 0.20 0.14 0.18 0.10 0.02 0.09 0.03 0.00 0.00 0.00 0.00 0.00
0.16 0.16 0.18 0.22 0.36 0.34 0.27 0.26 0.29 0.48 0.64 1.04 1.03 0.68 0.50 0.43 0.14 0.11 0.11 0.07 0.03 0.02 0.02 0.01 0.00 0.00 0.01 0.01 0.13 0.19 0.21 0.21 0.11 0.16 0.17 0.17 0.23 0.31 0.14 0.07 0.05 0.00 0.00 0.00 0.00 0.00 0.00
0.12 0.13 0.16 0.18 0.22 0.33 0.36 0.33 0.34 0.47 0.75 1.02 0.85 0.64 0.94 0.76 0.31 0.04 0.06 0.10 0.10 0.07 0.07 0.01 0.03 0.04 0.03 0.04 0.16 0.16 0.11 0.11 0.12 0.15 0.18 0.34 0.33 0.34 0.26 0.13 0.04 0.00 0.00 0.00 0.00 0.00 0.00
0.07 0.09 0.10 0.15 0.17 0.26 0.37 0.42 0.39 0.45 0.85 1.06 1.04 0.46 0.88 1.30 0.34 0.08 0.11 0.09 0.07 0.11 0.14 0.04 0.12 0.15 0.12 0.14 0.10 0.09 0.06 0.02 0.02 0.05 0.12 0.24 0.41 0.37 0.34 0.28 0.04 0.00 0.00 0.02 0.03 0.02 0.00
0.05 0.16 0.13 0.14 0.13 0.20 0.30 0.42 0.44 0.52 0.80 1.18 0.99 0.39 0.50 1.04 0.49 0.21 0.18 0.17 0.07 0.09 0.13 0.08 0.36 0.38 0.34 0.21 0.06 0.03 0.02 0.01 0.00 0.00 0.03 0.07 0.16 0.22 0.31 0.32 0.12 0.04 0.08 0.08 0.02 0.01 0.00
0.10 0.11 0.13 0.13 0.15 0.18 0.23 0.27 0.40 0.53 0.85 1.17 1.13 0.54 0.40 0.83 0.63 0.29 0.21 0.23 0.15 0.05 0.10 0.16 0.13 0.09 0.11 0.18 0.04 0.02 0.02 0.01 0.00 0.00 0.01 0.04 0.04 0.07 0.07 0.06 0.04 0.04 0.11 0.09 0.04 0.03 0.01